Погода в Баменде

Камерун     5°57′32″N   10°09′13″E
темп.,
°C
ветер,
м/с
пор.,
м/с
влажн.,
%
обл.,
%
осадки,
мм/ч
давл.,
гПа
погр.,
м
24 сентября, пт
пт2401:00+15зсз119282 0.0 101620
04:00+15ссз119396 0.0 101517
07:00+16ю0093100 0.0 101735
10:00+20юв1277100 0.0 1017593
13:00+23вюв227166 1.0 10131174
16:00+18вюв1193100 4.0 101344
19:00+16вюв119450 6.4 101512
22:00+15юв119544 0.1 101811
25 сентября, сб
сб2501:00+15юв119479 0.1 101611
04:00+15ю1193100 0.0 101511
07:00+16вюв1192100 0.0 101728
10:00+21вюв1280100 0.9 1017320
13:00+19вюв1187100 3.1 1015103
16:00+18в1292100 3.5 1014129
19:00+17ююв119495 4.7 101521
22:00+16юв119399 0.1 101811
26 сентября, вс
вс2601:00+15юв119593 0.2 101714
04:00+15ююв019390 0.0 101611
07:00+16юв018995 0.0 101714
10:00+21в127172 0.6 1017397
13:00+22вюв227494 2.3 1014769
16:00+19ююв118796 2.8 101342
19:00+17зсз119079 3.7 101511
22:00+16з119553 0.2 101616
27 сентября, пн
пн2701:00+15зюз1196100 0.2 101615
04:00+15зюз019556 0.1 101513
07:00+16зюз019394 0.1 101626
10:00+23с0166100 0.0 1016752
13:00+24ссз1161100 0.5 10121407
16:00+20ссз1287100 3.9 1011116
19:00+17з01939 6.9 101311
22:00+17юз119080 0.7 101511
28 сентября, вт
вт2801:00+16з119417 0.8 101411
04:00+15зсз019690 1.2 101313
07:00+16зсз119678 2.3 101551
10:00+21зсз117973 1.4 1015711
13:00+23всв117142 3.6 10111070
16:00+21сз118144 4.1 1009547
19:00+17ю119419 8.6 101211
22:00+17ю019599 2.7 101516